Showing default

GCOM-C, 43065

Orbit data source: Space-Track

GCOM-C, 43065 is a payload satellite owned by JAXA (JP) in SSO that was launched on Sat, 23 Dec 2017 UTC via an H-IIA 202 launch vehicle from the Tanegashima Space Center (TNSTA). Payloads include a variety of satellites, spacecraft, and rockets equipped with specific instruments for various scientific and technological missions. These include communications satellites like Starlink; space stations such as the ISS; scientific satellites like the Hubble; Earth observation satellites from companies like Planet Labs, Umbra, and HawkEye 360; GPS; miniature CubeSats for education and research; and military/defense satellites.

Loading next visibility...
GCOM-C details
Identifier
43065, 2017-082A
Orbit
SSO
Last TLE update10 hours ago
Origin
Flag of JPJAXA (JP / JPN)
ManufacturerNEC Toshiba/Fuchu
MissionOperational Civil Imaging
Bus & MotorGCOM, AOCS
Mass2,093 kg wet, 1,917 kg dry
Launch date (UTC)
2017-12-23 (7 years ago)
Launch vehicle
H-IIA 202
Launch site
Tanegashima Space Center (TNSTA)
Object type
Payload
Rocket body
Debris
Shape & HBRBox + 2 Pan + 1 Dish, 16.5 m
Radar Cross Section24.018 m², Large (>1 m²)

Expand to show TLE details & history

TLE from 10 hours ago
0 GCOM-C
1 43065U 17082A   24336.91517006  .00000575  00000-0  25255-3 0  9992
2 43065  98.5528  45.4598 0001140  95.8463 264.2848 14.27312608361731
Epoch: 2024-12-01T21:57Z
Definitive object data (Epoch: 2024-12-01T21:57:50.693Z)
Latitude-0°
Longitude4.75205°
Altitude803.739 km
Speed7.452 km/s
True Right ascension03h 01m 50s
True Declination0° 00' 00"
Sunlit
Object was in full shadow at TLE epoch
Visualization TLE readout
Latitude-37.96063°
Longitude11.85852°
Altitude815.701 km
Speed7.444 km/s
Apparent Right ascension23h 31m 57s
Apparent Declination-70° 21' 40"
Sunlit
Object is in full shadow
Visualization observer readout
Local Sidereal Time05:38:55
Azimuth205.141° SW
Elevation-37.747°
Doppler factor1
Orbital elements
Apogee altitude798.687 km
Perigee altitude797.051 km
Semi-major axis7,176.006 km
Eccentricity0.000114
Inclination98.5528°
RAAN45.4598°
Arg. of periapsis95.8463°
True anomaly264.2718°
Mean anomaly264.2848°
Eccentric anomaly264.2783°
Mean motion3.57042 °/min
BSTAR0.00025255
Orbital period100.83 mins
Loading maneuver chart data...
Loading historical data...
Loading historical data...
Loading historical data...
Loading historical data...
Loading historical data...
Loading historical data...
Loading historical data...
Other satellites on launch #82 in the year 2017 (2017-12-23 UTC)

GCOM-C Visibility forecast

Observer location: undefined°, undefined

Span
Click to sort rows by Start time (UTC) header in descending order
Start Az.
Max El. time (UTC)
Max El. Az.
Max El.
End time (UTC)
End Az.
8 mins2024-12-02 17:03:46.686Z34.06° NE2024-12-02 17:07:46.686Z99.054° ESE32.274°2024-12-02 17:11:46.686Z162.536° S
6 mins2024-12-02 18:44:46.686Z332.436° NNW2024-12-02 18:46:46.686Z302.211° NW22.943°2024-12-02 18:50:46.686Z245.007° WSW
8 mins2024-12-03 04:22:46.686Z145.206° SSE2024-12-03 04:26:46.686Z59.206° ENE39.656°2024-12-03 04:30:46.686Z357.619° N
5 mins2024-12-03 06:04:46.686Z244.582° WSW2024-12-03 06:06:46.686Z271.373° WNW16.115°2024-12-03 06:09:46.686Z307.04° NW
|